Girdwood, AK

11:32 AM AKST on December 10, 2016 (GMT -0900)
Portage Glacier

Weather History for PATO - May, 2014

Change the Weather History Date:

Thursday, May 1, 2014

  Actual Average (PAWR) Record (PAWR)
Temperature  
Mean Temperature 45 °F -  
Max Temperature 63 °F 46 °F 62 °F (2003)
Min Temperature 28 °F 37 °F 21 °F (1954)
Degree Days  
Heating Degree Days 20    
Moisture  
Dew Point 32 °F    
Average Humidity 70    
Maximum Humidity 100    
Minimum Humidity 37    
Precipitation  
Precipitation 0.00 in - - ()
Sea Level Pressure  
Sea Level Pressure 30.50 in    
Wind  
Wind Speed 1 mph (East)    
Max Wind Speed 8 mph    
Max Gust Speed -    
Visibility 10 miles    
Events      
Averages and records for this station are not official NWS values.
T = Trace of Precipitation, MM = Missing Value Source: NWS Daily Summary

Daily Weather History Graph

Daily Weather History Graph

Search for Another Location

Airport or City:

Trip Planner

Search our weather history database for the weather conditions in past years. The results will help you decide how hot, cold, wet, or windy it might be!

Date:

Astronomy

May. 01, 2014 Rise Set
Actual Time 5:48 AM AKDT 9:58 PM AKDT
Civil Twilight 4:52 AM AKDT 10:54 PM AKDT
Nautical Twilight 3:21 AM AKDT 12:28 AM AKDT
Astronomical Twilight Sun does not rise Sun does not rise
Moon 7:26 AM AKDT (5/1) No Moon Set
Length of Visible Light 18h 01m
Length of Day
16h 09m
Waxing Crescent, 7% of the Moon is Illuminated
May 1
Waxing Crescent
May 6
First Quarter
May 14
Full
May 21
Last Quarter
May 28
New

Hourly Weather History & Observations

Time (AKDT) Temp. Windchill Dew Point Humidity Pressure Visibility Wind Dir Wind Speed Gust Speed Precip Events Conditions
12:53 AM 33.1 °F - 30.9 °F 92% 30.55 in 10.0 mi Calm Calm - N/A   Clear
1:53 AM 30.9 °F - 30.9 °F 100% 30.55 in 10.0 mi Calm Calm - N/A   Clear
2:53 AM 30.0 °F - 28.9 °F 96% 30.56 in 10.0 mi Calm Calm - N/A   Clear
3:53 AM 30.0 °F - 28.9 °F 96% 30.57 in 10.0 mi Calm Calm - N/A   Clear
4:53 AM 28.9 °F - 28.0 °F 96% 30.58 in 10.0 mi Calm Calm - N/A   Clear
5:53 AM 28.0 °F - 28.0 °F 100% 30.58 in 10.0 mi Calm Calm - N/A   Clear
6:53 AM 28.9 °F - 28.9 °F 100% 30.58 in 10.0 mi Calm Calm - N/A   Clear
7:53 AM 32.0 °F - 32.0 °F 100% 30.58 in 10.0 mi Calm Calm - N/A   Clear
8:53 AM 39.9 °F - 36.0 °F 86% 30.58 in 10.0 mi Calm Calm - N/A   Clear
9:53 AM 43.0 °F - 35.1 °F 74% 30.57 in 10.0 mi Calm Calm - N/A   Clear
10:53 AM 46.0 °F 44.8 °F 36.0 °F 68% 30.55 in 10.0 mi ESE 3.5 mph - N/A   Clear
11:53 AM 51.1 °F - 36.0 °F 56% 30.54 in 10.0 mi ESE 4.6 mph - N/A   Clear
12:53 PM 53.1 °F - 35.1 °F 50% 30.53 in 10.0 mi East 4.6 mph - N/A   Clear
1:53 PM 57.0 °F - 34.0 °F 42% 30.51 in 10.0 mi Calm Calm - N/A   Clear
2:53 PM 62.1 °F - 35.1 °F 37% 30.50 in 10.0 mi Variable 5.8 mph - N/A   Clear
3:53 PM 60.1 °F - 34.0 °F 38% 30.47 in 10.0 mi Variable 3.5 mph - N/A   Clear
4:53 PM 57.0 °F - 30.9 °F 37% 30.45 in 10.0 mi East 8.1 mph - N/A   Clear
5:53 PM 55.9 °F - 30.9 °F 39% 30.44 in 10.0 mi East 3.5 mph - N/A   Clear
6:53 PM 57.0 °F - 30.9 °F 37% 30.42 in 10.0 mi ESE 4.6 mph - N/A   Clear
7:53 PM 53.1 °F - 32.0 °F 45% 30.41 in 10.0 mi Calm Calm - N/A   Clear
8:53 PM 48.9 °F - 33.1 °F 54% 30.40 in 10.0 mi Calm Calm - N/A   Clear
9:53 PM 43.0 °F - 33.1 °F 68% 30.39 in 10.0 mi Calm Calm - N/A   Clear
10:53 PM 37.9 °F - 33.1 °F 83% 30.38 in 10.0 mi Calm Calm - N/A   Clear
11:53 PM 35.1 °F - 32.0 °F 89% 30.37 in 10.0 mi Calm Calm - N/A   Clear